OK2JF-6 Weather Reports


Display with metric or nautical units.
time (UTC)temp
F
wind
direction
speed
MPH
gust
MPH
rain 1hr
in
rain 24hr
in
rain mn
in
humidity
%
barometer
mb
20260505160603 72 87 4.0 13.0 0.00 0.00 0.00 35 1077.8
20260505160503 72 88 5.0 17.0 0.00 0.00 0.00 35 1077.9
20260505160403 72 87 5.0 17.0 0.00 0.00 0.00 35 1077.7
20260505160303 72 89 5.0 17.0 0.00 0.00 0.00 35 1077.6
20260505160203 72 90 5.0 17.0 0.00 0.00 0.00 35 1077.6
20260505153303 74 91 6.0 15.0 0.00 0.00 0.00 35 1077.7
20260505153203 74 94 6.0 15.0 0.00 0.00 0.00 35 1077.7
20260505153118 74 92 7.0 15.0 0.00 0.00 0.00 35 1077.6
20260505153103 74 91 7.0 15.0 0.00 0.00 0.00 35 1077.6
20260505153003 74 87 6.0 15.0 0.00 0.00 0.00 35 1077.7
20260505152803 74 88 6.0 15.0 0.00 0.00 0.00 35 1077.7
20260505152703 74 89 5.0 14.0 0.00 0.00 0.00 35 1077.8
20260505152616 74 90 6.0 14.0 0.00 0.00 0.00 36 1077.9
20260505152604 74 90 6.0 14.0 0.00 0.00 0.00 36 1077.9
20260505152504 74 87 6.0 14.0 0.00 0.00 0.00 36 1077.7
20260505152418 74 89 6.0 14.0 0.00 0.00 0.00 36 1077.8
20260505152103 74 93 6.0 14.0 0.00 0.00 0.00 36 1077.8
20260505152003 74 98 7.0 14.0 0.00 0.00 0.00 36 1077.9
20260505151903 74 100 7.0 15.0 0.00 0.00 0.00 36 1077.8
20260505151803 74 101 8.0 15.0 0.00 0.00 0.00 37 1077.8
20260505151703 74 102 8.0 15.0 0.00 0.00 0.00 37 1077.9
20260505151603 74 102 8.0 15.0 0.00 0.00 0.00 37 1078.1
20260505151503 74 102 7.0 15.0 0.00 0.00 0.00 37 1077.8
20260505151403 74 100 7.0 15.0 0.00 0.00 0.00 37 1077.8
20260505151318 74 98 7.0 15.0 0.00 0.00 0.00 37 1078.0
20260505151303 74 99 7.0 15.0 0.00 0.00 0.00 37 1078.0
20260505151203 74 100 7.0 15.0 0.00 0.00 0.00 37 1078.0
20260505151117 74 98 6.0 15.0 0.00 0.00 0.00 37 1078.0
20260505151003 74 96 6.0 15.0 0.00 0.00 0.00 37 1078.1
20260505150803 74 96 5.0 14.0 0.00 0.00 0.00 37 1078.1
20260505150703 74 97 6.0 14.0 0.00 0.00 0.00 37 1077.9
20260505150603 74 97 6.0 14.0 0.00 0.00 0.00 38 1078.1
20260505150503 74 105 6.0 15.0 0.00 0.00 0.00 38 1077.8
20260505150403 74 106 6.0 15.0 0.00 0.00 0.00 38 1077.9
20260505150303 74 107 6.0 15.0 0.00 0.00 0.00 37 1078.0
20260505150203 74 107 7.0 15.0 0.00 0.00 0.00 37 1077.9
20260505140618 74 90 8.0 17.0 0.00 0.00 0.00 41 1078.8
20260505140303 74 94 8.0 17.0 0.00 0.00 0.00 40 1078.7
20260505140203 74 93 8.0 17.0 0.00 0.00 0.00 41 1078.6
20260505130203 75 119 7.0 16.0 0.00 0.00 0.00 41 1079.3
20260505130103 75 115 7.0 16.0 0.00 0.00 0.00 41 1079.4
20260505124903 75 110 6.0 18.0 0.00 0.00 0.00 42 1079.5
20260505124818 75 112 6.0 18.0 0.00 0.00 0.00 42 1079.5
20260505124803 75 114 6.0 18.0 0.00 0.00 0.00 42 1079.5
20260505124503 75 131 6.0 15.0 0.00 0.00 0.00 42 1079.5
20260505124403 75 135 6.0 15.0 0.00 0.00 0.00 42 1079.6
20260505124303 75 132 6.0 13.0 0.00 0.00 0.00 43 1079.5
20260505124203 75 130 6.0 13.0 0.00 0.00 0.00 42 1079.6
20260505124103 75 131 6.0 13.0 0.00 0.00 0.00 42 1079.4
20260505124003 75 128 5.0 13.0 0.00 0.00 0.00 42 1079.5
20260505123918 75 130 5.0 13.0 0.00 0.00 0.00 43 1079.4
20260505123903 75 131 6.0 13.0 0.00 0.00 0.00 43 1079.4
20260505123803 75 130 6.0 13.0 0.00 0.00 0.00 43 1079.6
20260505123603 75 132 5.0 13.0 0.00 0.00 0.00 44 1079.5
20260505123503 75 129 5.0 13.0 0.00 0.00 0.00 43 1079.7
20260505123403 75 120 5.0 14.0 0.00 0.00 0.00 43 1079.6
20260505123303 75 115 5.0 14.0 0.00 0.00 0.00 43 1079.5
20260505123203 75 114 5.0 14.0 0.00 0.00 0.00 42 1079.5
20260505123103 75 113 5.0 14.0 0.00 0.00 0.00 44 1079.7
20260505123003 74 113 5.0 14.0 0.00 0.00 0.00 44 1079.6
20260505122903 74 112 5.0 14.0 0.00 0.00 0.00 43 1079.7
20260505122818 75 109 5.0 14.0 0.00 0.00 0.00 42 1079.7
20260505122803 75 109 5.0 14.0 0.00 0.00 0.00 42 1079.6
20260505122703 75 110 5.0 14.0 0.00 0.00 0.00 42 1079.5
20260505122618 75 109 5.0 14.0 0.00 0.00 0.00 42 1079.5
20260505122503 75 109 6.0 14.0 0.00 0.00 0.00 42 1079.9
20260505122305 75 113 6.0 15.0 0.00 0.00 0.00 41 1079.7
20260505122218 75 117 6.0 15.0 0.00 0.00 0.00 41 1079.7
20260505122203 75 118 7.0 15.0 0.00 0.00 0.00 42 1080.0
20260505122103 75 117 7.0 15.0 0.00 0.00 0.00 41 1079.8
20260505121903 75 119 7.0 15.0 0.00 0.00 0.00 42 1079.8
20260505121803 75 118 7.0 15.0 0.00 0.00 0.00 42 1079.7
20260505121703 75 115 7.0 15.0 0.00 0.00 0.00 42 1079.5
20260505121603 75 116 7.0 15.0 0.00 0.00 0.00 42 1079.9
20260505121503 75 115 7.0 15.0 0.00 0.00 0.00 42 1079.9
20260505121403 75 113 6.0 15.0 0.00 0.00 0.00 42 1079.8
20260505121303 75 114 6.0 14.0 0.00 0.00 0.00 42 1079.9
20260505121203 75 114 6.0 14.0 0.00 0.00 0.00 42 1079.7
20260505121103 75 114 6.0 14.0 0.00 0.00 0.00 42 1079.6
20260505121003 75 119 5.0 13.0 0.00 0.00 0.00 42 1079.8
20260505120903 75 116 5.0 13.0 0.00 0.00 0.00 42 1079.8
20260505120803 75 116 5.0 13.0 0.00 0.00 0.00 41 1079.5
20260505120703 75 112 5.0 13.0 0.00 0.00 0.00 42 1079.8
20260505120617 75 105 5.0 10.0 0.00 0.00 0.00 42 1079.8
20260505120603 75 104 5.0 10.0 0.00 0.00 0.00 42 1079.9
20260505120503 75 107 5.0 10.0 0.00 0.00 0.00 42 1079.5
20260505120303 75 102 5.0 10.0 0.00 0.00 0.00 42 1079.6
20260505120203 75 100 5.0 10.0 0.00 0.00 0.00 43 1079.6
20260505120103 75 100 6.0 11.0 0.00 0.00 0.00 41 1079.9
20260505120004 75 96 6.0 13.0 0.00 0.00 0.00 40 1079.7
20260505115903 75 98 6.0 13.0 0.00 0.00 0.00 40 1079.6
20260505115803 75 99 7.0 13.0 0.00 0.00 0.00 40 1079.9
20260505115703 75 103 7.0 13.0 0.00 0.00 0.00 40 1079.8
20260505115603 76 106 7.0 13.0 0.00 0.00 0.00 40 1079.8
20260505115503 76 105 7.0 13.0 0.00 0.00 0.00 39 1079.9
20260505115403 76 109 7.0 13.0 0.00 0.00 0.00 39 1079.9
20260505115305 76 110 7.0 15.0 0.00 0.00 0.00 39 1079.9
20260505115203 76 108 7.0 15.0 0.00 0.00 0.00 39 1079.8
20260505115103 77 108 7.0 15.0 0.00 0.00 0.00 39 1080.0
20260505115003 77 110 7.0 15.0 0.00 0.00 0.00 39 1079.8
20260505114903 77 110 6.0 15.0 0.00 0.00 0.00 38 1079.8
20260505114803 77 117 6.0 15.0 0.00 0.00 0.00 38 1079.9
20260505114703 77 121 5.0 15.0 0.00 0.00 0.00 39 1079.9
20260505114603 77 126 5.0 15.0 0.00 0.00 0.00 39 1080.0
20260505114503 77 124 6.0 15.0 0.00 0.00 0.00 39 1080.1
20260505114403 77 120 6.0 15.0 0.00 0.00 0.00 39 1079.8
20260505114303 77 117 5.0 15.0 0.00 0.00 0.00 39 1079.9
20260505114203 77 120 5.0 13.0 0.00 0.00 0.00 40 1080.0
20260505114103 77 122 5.0 13.0 0.00 0.00 0.00 39 1080.0
20260505114003 77 118 6.0 15.0 0.00 0.00 0.00 39 1079.9
20260505113903 77 113 6.0 15.0 0.00 0.00 0.00 39 1080.0
20260505113818 77 108 6.0 15.0 0.00 0.00 0.00 39 1080.0
20260505113803 77 107 6.0 15.0 0.00 0.00 0.00 39 1080.0
20260505113703 77 104 7.0 15.0 0.00 0.00 0.00 38 1079.9
20260505113503 77 101 6.0 15.0 0.00 0.00 0.00 38 1080.0
20260505113403 77 104 6.0 15.0 0.00 0.00 0.00 38 1079.9
20260505113303 77 103 7.0 15.0 0.00 0.00 0.00 39 1079.9
20260505113203 77 106 7.0 15.0 0.00 0.00 0.00 39 1080.1
20260505113103 77 106 7.0 15.0 0.00 0.00 0.00 39 1080.2
20260505113003 77 108 6.0 15.0 0.00 0.00 0.00 39 1079.8
20260505112917 77 112 6.0 15.0 0.00 0.00 0.00 38 1080.3
20260505112903 77 111 6.0 15.0 0.00 0.00 0.00 38 1080.3
20260505112803 77 111 6.0 15.0 0.00 0.00 0.00 38 1080.2
20260505112603 77 106 7.0 15.0 0.00 0.00 0.00 39 1080.2
20260505112503 77 108 6.0 15.0 0.00 0.00 0.00 39 1080.0
20260505112403 77 107 6.0 15.0 0.00 0.00 0.00 39 1080.0
20260505112305 77 108 6.0 13.0 0.00 0.00 0.00 39 1079.9
20260505112203 77 100 6.0 13.0 0.00 0.00 0.00 39 1080.0
20260505112103 77 99 6.0 13.0 0.00 0.00 0.00 38 1080.2
20260505112003 77 94 6.0 14.0 0.00 0.00 0.00 38 1080.0
20260505111903 78 92 6.0 14.0 0.00 0.00 0.00 39 1080.2
20260505111818 78 92 6.0 14.0 0.00 0.00 0.00 39 1080.0
20260505111803 77 92 6.0 14.0 0.00 0.00 0.00 39 1080.0
20260505111718 77 97 6.0 14.0 0.00 0.00 0.00 39 1080.0
20260505111703 77 100 6.0 14.0 0.00 0.00 0.00 39 1080.0
20260505111403 77 96 6.0 14.0 0.00 0.00 0.00 39 1080.2
20260505111303 77 94 6.0 14.0 0.00 0.00 0.00 39 1080.0
20260505111203 77 96 6.0 14.0 0.00 0.00 0.00 39 1080.1
20260505111103 77 92 6.0 14.0 0.00 0.00 0.00 39 1080.3
20260505111003 77 91 6.0 13.0 0.00 0.00 0.00 40 1080.0
20260505110903 77 89 6.0 15.0 0.00 0.00 0.00 39 1080.1
20260505110803 77 89 6.0 15.0 0.00 0.00 0.00 39 1080.0
20260505110703 77 88 6.0 15.0 0.00 0.00 0.00 39 1080.1
20260505110617 77 90 6.0 15.0 0.00 0.00 0.00 39 1080.0
20260505110603 77 90 6.0 15.0 0.00 0.00 0.00 39 1080.0
20260505110503 77 91 6.0 15.0 0.00 0.00 0.00 38 1080.0
20260505110303 78 96 5.0 15.0 0.00 0.00 0.00 37 1080.1
20260505110203 78 101 6.0 15.0 0.00 0.00 0.00 37 1080.2
20260505102205 76 110 6.0 14.0 0.00 0.00 0.00 39 1080.4
20260505102103 76 110 6.0 14.0 0.00 0.00 0.00 39 1080.6
20260505102003 76 108 6.0 11.0 0.00 0.00 0.00 39 1080.3
20260505101903 77 110 6.0 11.0 0.00 0.00 0.00 38 1080.3
20260505101803 77 111 6.0 13.0 0.00 0.00 0.00 38 1080.5
20260505101704 77 111 6.0 13.0 0.00 0.00 0.00 38 1080.4
20260505101603 77 107 6.0 13.0 0.00 0.00 0.00 38 1080.5
20260505101503 77 103 5.0 13.0 0.00 0.00 0.00 39 1080.4
20260505101403 76 106 6.0 13.0 0.00 0.00 0.00 39 1080.3
20260505101318 76 110 6.0 13.0 0.00 0.00 0.00 39 1080.3
20260505101303 76 109 6.0 13.0 0.00 0.00 0.00 39 1080.4
20260505101203 76 110 6.0 13.0 0.00 0.00 0.00 39 1080.5
20260505101018 76 108 6.0 13.0 0.00 0.00 0.00 38 1080.3
20260505101003 76 107 6.0 13.0 0.00 0.00 0.00 38 1080.3
20260505100903 76 109 6.0 14.0 0.00 0.00 0.00 38 1080.4
20260505100718 76 107 6.0 14.0 0.00 0.00 0.00 39 1080.5
20260505100703 76 106 6.0 14.0 0.00 0.00 0.00 39 1080.4
20260505100603 76 108 6.0 14.0 0.00 0.00 0.00 38 1080.4
20260505100517 76 110 6.0 14.0 0.00 0.00 0.00 38 1080.4
20260505100403 76 110 5.0 14.0 0.00 0.00 0.00 39 1080.3
20260505100217 76 115 5.0 14.0 0.00 0.00 0.00 39 1080.5
20260505100203 76 116 5.0 14.0 0.00 0.00 0.00 39 1080.4
20260505095903 76 122 5.0 13.0 0.00 0.00 0.00 39 1080.4
20260505095803 76 119 5.0 11.0 0.00 0.00 0.00 39 1080.5
20260505095703 76 124 4.0 11.0 0.00 0.00 0.00 39 1080.5
20260505095603 77 122 5.0 11.0 0.00 0.00 0.00 39 1080.1
20260505095503 77 118 5.0 11.0 0.00 0.00 0.00 39 1080.3
20260505095403 77 113 4.0 11.0 0.00 0.00 0.00 39 1080.4
20260505095304 77 109 4.0 11.0 0.00 0.00 0.00 39 1080.3
20260505095203 77 106 4.0 11.0 0.00 0.00 0.00 39 1080.4
20260505095103 77 103 5.0 13.0 0.00 0.00 0.00 39 1080.4
20260505095018 77 103 5.0 13.0 0.00 0.00 0.00 39 1080.4
20260505095003 77 102 5.0 13.0 0.00 0.00 0.00 39 1080.4
20260505094903 76 99 5.0 13.0 0.00 0.00 0.00 40 1080.1
20260505094703 76 101 5.0 13.0 0.00 0.00 0.00 39 1080.2
20260505094603 76 103 5.0 13.0 0.00 0.00 0.00 39 1080.2
20260505094503 76 106 5.0 13.0 0.00 0.00 0.00 40 1080.5
20260505094403 76 107 6.0 13.0 0.00 0.00 0.00 39 1080.3
20260505094303 76 112 6.0 13.0 0.00 0.00 0.00 38 1080.5
20260505094203 76 117 6.0 13.0 0.00 0.00 0.00 39 1080.5
20260505094103 76 115 6.0 13.0 0.00 0.00 0.00 38 1080.4
20260505094003 76 117 5.0 13.0 0.00 0.00 0.00 38 1080.6
20260505093903 76 115 5.0 13.0 0.00 0.00 0.00 39 1080.4
20260505093803 76 111 5.0 13.0 0.00 0.00 0.00 39 1080.4
20260505093703 76 111 5.0 13.0 0.00 0.00 0.00 39 1080.5
20260505093603 76 111 5.0 13.0 0.00 0.00 0.00 39 1080.3
20260505093503 76 111 5.0 13.0 0.00 0.00 0.00 38 1080.3
20260505093403 76 112 6.0 13.0 0.00 0.00 0.00 38 1080.3
20260505093303 76 106 5.0 11.0 0.00 0.00 0.00 38 1080.6
20260505093203 76 98 5.0 11.0 0.00 0.00 0.00 38 1080.6
20260505093103 76 100 6.0 11.0 0.00 0.00 0.00 38 1080.5
20260505093003 76 102 6.0 13.0 0.00 0.00 0.00 38 1080.6
20260505092903 76 105 6.0 13.0 0.00 0.00 0.00 39 1080.5
20260505092803 76 108 6.0 13.0 0.00 0.00 0.00 38 1080.4
20260505092718 76 109 7.0 15.0 0.00 0.00 0.00 38 1080.5
20260505092703 76 109 7.0 15.0 0.00 0.00 0.00 38 1080.5
20260505092618 76 112 7.0 15.0 0.00 0.00 0.00 38 1080.6
20260505092603 76 112 7.0 15.0 0.00 0.00 0.00 38 1080.6
20260505092305 76 113 7.0 15.0 0.00 0.00 0.00 39 1080.6
20260505092217 76 115 7.0 15.0 0.00 0.00 0.00 38 1080.4
20260505092203 76 116 7.0 15.0 0.00 0.00 0.00 38 1080.4
20260505092103 76 117 6.0 15.0 0.00 0.00 0.00 37 1080.5
20260505091903 76 115 6.0 15.0 0.00 0.00 0.00 38 1080.4
20260505091803 76 113 6.0 15.0 0.00 0.00 0.00 37 1080.5
20260505091703 76 114 5.0 13.0 0.00 0.00 0.00 38 1080.4
20260505091603 76 109 5.0 10.0 0.00 0.00 0.00 39 1080.4
20260505091503 76 106 4.0 10.0 0.00 0.00 0.00 39 1080.6
20260505091403 76 104 4.0 10.0 0.00 0.00 0.00 38 1080.3
20260505091303 76 100 5.0 11.0 0.00 0.00 0.00 38 1080.5
20260505091203 76 97 5.0 11.0 0.00 0.00 0.00 37 1080.5
20260505091003 76 92 5.0 11.0 0.00 0.00 0.00 39 1080.6
20260505090903 76 94 5.0 11.0 0.00 0.00 0.00 38 1080.5
20260505090803 76 103 5.0 14.0 0.00 0.00 0.00 38 1080.7
20260505090603 75 104 6.0 14.0 0.00 0.00 0.00 39 1080.5
20260505090503 75 106 7.0 14.0 0.00 0.00 0.00 39 1080.6
20260505090403 75 106 7.0 14.0 0.00 0.00 0.00 39 1080.4
20260505090303 75 110 7.0 14.0 0.00 0.00 0.00 39 1080.9
20260505090203 75 110 7.0 14.0 0.00 0.00 0.00 39 1080.7
20260505090003 75 110 7.0 16.0 0.00 0.00 0.00 39 1080.5
20260505085903 75 112 7.0 16.0 0.00 0.00 0.00 38 1080.5
20260505085803 74 108 7.0 16.0 0.00 0.00 0.00 39 1080.5
20260505085703 74 106 7.0 16.0 0.00 0.00 0.00 39 1080.4
20260505085603 74 107 7.0 16.0 0.00 0.00 0.00 39 1080.7
20260505085403 74 107 7.0 16.0 0.00 0.00 0.00 39 1080.3
20260505085304 74 106 7.0 16.0 0.00 0.00 0.00 39 1080.5
20260505085219 74 107 6.0 16.0 0.00 0.00 0.00 39 1080.6
20260505085203 75 109 6.0 16.0 0.00 0.00 0.00 38 1080.6
20260505085103 75 112 6.0 16.0 0.00 0.00 0.00 38 1080.6
20260505084918 75 109 6.0 14.0 0.00 0.00 0.00 38 1080.5
20260505084903 75 109 6.0 14.0 0.00 0.00 0.00 39 1080.5
20260505084803 75 108 6.0 13.0 0.00 0.00 0.00 39 1080.5
20260505084603 74 106 6.0 13.0 0.00 0.00 0.00 39 1080.6
20260505084503 74 104 6.0 13.0 0.00 0.00 0.00 40 1080.4
20260505084403 74 105 6.0 13.0 0.00 0.00 0.00 39 1080.3
20260505084303 74 105 7.0 13.0 0.00 0.00 0.00 39 1080.5
20260505084203 74 101 7.0 13.0 0.00 0.00 0.00 39 1080.6
20260505084103 74 98 7.0 13.0 0.00 0.00 0.00 39 1080.7
20260505084003 74 96 7.0 13.0 0.00 0.00 0.00 39 1080.5
20260505083903 74 90 7.0 13.0 0.00 0.00 0.00 38 1080.6
20260505083803 74 88 7.0 13.0 0.00 0.00 0.00 38 1080.6
20260505083703 74 86 6.0 13.0 0.00 0.00 0.00 38 1080.6
20260505083603 74 87 6.0 13.0 0.00 0.00 0.00 38 1080.6
20260505083503 74 87 6.0 13.0 0.00 0.00 0.00 39 1080.5
20260505083403 74 87 6.0 13.0 0.00 0.00 0.00 40 1080.4
20260505083303 74 89 6.0 13.0 0.00 0.00 0.00 39 1080.5
20260505083203 74 92 5.0 13.0 0.00 0.00 0.00 39 1080.7
20260505083103 74 92 5.0 13.0 0.00 0.00 0.00 39 1080.7
20260505083018 74 94 5.0 13.0 0.00 0.00 0.00 39 1080.7
20260505083003 74 94 5.0 13.0 0.00 0.00 0.00 40 1080.6
20260505082903 73 103 5.0 13.0 0.00 0.00 0.00 40 1080.7
20260505082817 73 108 5.0 9.0 0.00 0.00 0.00 40 1080.7
20260505082703 73 111 5.0 9.0 0.00 0.00 0.00 40 1080.4
20260505082503 73 117 5.0 10.0 0.00 0.00 0.00 39 1080.8
20260505082403 73 117 5.0 10.0 0.00 0.00 0.00 39 1080.6
20260505082304 73 115 5.0 10.0 0.00 0.00 0.00 39 1080.5
20260505082203 73 120 5.0 10.0 0.00 0.00 0.00 40 1080.8
20260505082103 73 123 5.0 10.0 0.00 0.00 0.00 40 1080.5
20260505082003 73 121 6.0 10.0 0.00 0.00 0.00 40 1080.5
20260505081903 73 116 6.0 10.0 0.00 0.00 0.00 39 1080.6
20260505081803 73 110 6.0 10.0 0.00 0.00 0.00 39 1080.8
20260505081717 73 106 6.0 10.0 0.00 0.00 0.00 39 1080.8
20260505081703 73 105 6.0 10.0 0.00 0.00 0.00 39 1080.4
20260505081603 73 101 6.0 10.0 0.00 0.00 0.00 39 1080.7
20260505081403 73 92 6.0 10.0 0.00 0.00 0.00 40 1080.8
20260505081303 72 94 6.0 14.0 0.00 0.00 0.00 41 1080.5
20260505081203 72 89 6.0 14.0 0.00 0.00 0.00 40 1080.5
20260505081103 72 87 5.0 14.0 0.00 0.00 0.00 40 1080.7
20260505081003 72 92 5.0 14.0 0.00 0.00 0.00 40 1080.4
20260505080903 72 98 6.0 14.0 0.00 0.00 0.00 40 1080.5
20260505080817 72 102 5.0 14.0 0.00 0.00 0.00 41 1080.6
20260505080803 72 104 5.0 14.0 0.00 0.00 0.00 41 1080.6
20260505080717 72 110 5.0 14.0 0.00 0.00 0.00 40 1080.7
20260505080704 72 112 5.0 14.0 0.00 0.00 0.00 40 1080.7
20260505080518 72 121 5.0 14.0 0.00 0.00 0.00 40 1080.6
20260505080417 72 124 5.0 14.0 0.00 0.00 0.00 40 1080.8
20260505080403 72 124 5.0 14.0 0.00 0.00 0.00 40 1080.8
20260505080103 72 114 5.0 13.0 0.00 0.00 0.00 40 1080.8
20260505080003 72 110 5.0 13.0 0.00 0.00 0.00 41 1080.7
20260505075903 72 106 5.0 9.0 0.00 0.00 0.00 40 1080.7
20260505075803 72 105 5.0 9.0 0.00 0.00 0.00 40 1080.7
20260505075703 72 101 5.0 9.0 0.00 0.00 0.00 40 1080.7
20260505075603 72 100 5.0 9.0 0.00 0.00 0.00 40 1080.7
20260505075518 71 100 5.0 9.0 0.00 0.00 0.00 41 1080.6
20260505075503 71 100 5.0 9.0 0.00 0.00 0.00 41 1080.6
20260505075403 71 99 5.0 9.0 0.00 0.00 0.00 41 1080.9
20260505075218 71 97 4.0 9.0 0.00 0.00 0.00 40 1080.9
20260505075203 71 97 4.0 9.0 0.00 0.00 0.00 40 1080.9
20260505075116 71 93 5.0 10.0 0.00 0.00 0.00 40 1081.2
20260505075103 71 92 5.0 10.0 0.00 0.00 0.00 40 1081.2
20260505074803 71 81 4.0 10.0 0.00 0.00 0.00 41 1080.9
20260505074703 71 76 4.0 10.0 0.00 0.00 0.00 41 1080.8
20260505074603 71 74 5.0 10.0 0.00 0.00 0.00 40 1080.7
20260505074503 71 69 5.0 10.0 0.00 0.00 0.00 40 1080.9
20260505074403 71 68 5.0 10.0 0.00 0.00 0.00 40 1080.7
20260505074303 71 69 5.0 10.0 0.00 0.00 0.00 40 1080.9
20260505074203 71 69 5.0 10.0 0.00 0.00 0.00 41 1080.9
20260505074103 71 75 5.0 10.0 0.00 0.00 0.00 40 1080.6
20260505074003 71 82 5.0 14.0 0.00 0.00 0.00 40 1080.8
20260505073903 70 84 5.0 14.0 0.00 0.00 0.00 41 1081.1
20260505073803 70 85 5.0 14.0 0.00 0.00 0.00 41 1080.7
20260505073703 70 85 6.0 14.0 0.00 0.00 0.00 41 1080.8
20260505073603 70 89 6.0 14.0 0.00 0.00 0.00 40 1080.9
20260505073403 70 93 6.0 14.0 0.00 0.00 0.00 41 1080.8
20260505073303 70 95 6.0 14.0 0.00 0.00 0.00 41 1080.9
20260505073203 70 97 6.0 14.0 0.00 0.00 0.00 40 1081.1
20260505073117 70 94 6.0 14.0 0.00 0.00 0.00 40 1080.8
20260505073103 70 93 6.0 14.0 0.00 0.00 0.00 40 1080.8
20260505073003 69 89 6.0 13.0 0.00 0.00 0.00 41 1080.7
20260505072818 69 88 6.0 13.0 0.00 0.00 0.00 42 1080.8
20260505072803 69 89 6.0 13.0 0.00 0.00 0.00 41 1080.8
20260505072703 69 93 6.0 13.0 0.00 0.00 0.00 42 1080.7
20260505072518 69 98 6.0 13.0 0.00 0.00 0.00 42 1080.7
20260505072503 69 99 6.0 13.0 0.00 0.00 0.00 42 1080.7
20260505072403 69 99 6.0 13.0 0.00 0.00 0.00 42 1080.7
20260505072317 69 98 6.0 13.0 0.00 0.00 0.00 42 1080.7
20260505072218 68 97 6.0 13.0 0.00 0.00 0.00 42 1080.7
20260505072203 68 98 6.0 13.0 0.00 0.00 0.00 42 1080.7
20260505071903 68 107 6.0 13.0 0.00 0.00 0.00 42 1080.8
20260505071803 68 107 6.0 13.0 0.00 0.00 0.00 42 1080.9
20260505071717 68 106 6.0 11.0 0.00 0.00 0.00 41 1080.9
20260505071703 68 105 6.0 11.0 0.00 0.00 0.00 41 1080.9
20260505071603 68 106 6.0 11.0 0.00 0.00 0.00 41 1080.8
20260505071518 68 107 6.0 13.0 0.00 0.00 0.00 41 1080.7
20260505071416 68 107 6.0 13.0 0.00 0.00 0.00 41 1080.9
20260505071403 68 108 6.0 13.0 0.00 0.00 0.00 41 1080.9
20260505071103 68 110 6.0 14.0 0.00 0.00 0.00 42 1081.1
20260505071003 68 103 6.0 14.0 0.00 0.00 0.00 42 1080.7
20260505070903 67 101 6.0 14.0 0.00 0.00 0.00 43 1080.9
20260505070803 67 99 6.0 14.0 0.00 0.00 0.00 43 1081.1
20260505070703 67 98 6.0 14.0 0.00 0.00 0.00 43 1081.1
20260505070603 67 93 6.0 14.0 0.00 0.00 0.00 43 1081.1
20260505070503 67 89 6.0 14.0 0.00 0.00 0.00 43 1081.1
20260505070416 67 87 6.0 14.0 0.00 0.00 0.00 43 1081.1
20260505070403 67 86 6.0 14.0 0.00 0.00 0.00 43 1081.1
20260505070303 67 84 7.0 14.0 0.00 0.00 0.00 43 1081.1
20260505070218 67 82 7.0 14.0 0.00 0.00 0.00 42 1081.2
20260505065903 66 75 6.0 11.0 0.00 0.00 0.00 43 1081.1
20260505065818 66 79 6.0 13.0 0.00 0.00 0.00 43 1081.2
20260505065803 66 79 6.0 13.0 0.00 0.00 0.00 43 1081.2
20260505065703 66 81 6.0 13.0 0.00 0.00 0.00 43 1081.3
20260505065617 67 80 6.0 13.0 0.00 0.00 0.00 43 1080.9
20260505065503 66 82 6.0 13.0 0.00 0.00 0.00 43 1081.1
20260505065304 66 85 5.0 13.0 0.00 0.00 0.00 43 1081.4
20260505065203 66 87 5.0 13.0 0.00 0.00 0.00 44 1081.2
20260505065103 65 90 5.0 13.0 0.00 0.00 0.00 45 1081.1
20260505065003 65 90 5.0 13.0 0.00 0.00 0.00 44 1081.3
20260505064917 65 91 5.0 13.0 0.00 0.00 0.00 44 1081.3
20260505064903 65 90 5.0 13.0 0.00 0.00 0.00 45 1081.4
20260505064803 65 87 5.0 11.0 0.00 0.00 0.00 46 1081.2
20260505064617 64 87 5.0 11.0 0.00 0.00 0.00 46 1080.9
20260505064603 64 85 4.0 11.0 0.00 0.00 0.00 46 1081.1
20260505064503 64 82 5.0 11.0 0.00 0.00 0.00 46 1081.3
20260505064303 63 79 4.0 11.0 0.00 0.00 0.00 47 1080.9
20260505064203 63 78 4.0 11.0 0.00 0.00 0.00 47 1081.2
20260505064103 63 75 4.0 11.0 0.00 0.00 0.00 47 1081.3
20260505064003 63 77 4.0 11.0 0.00 0.00 0.00 47 1081.1
20260505063903 62 80 4.0 11.0 0.00 0.00 0.00 48 1081.2
20260505063803 62 82 4.0 11.0 0.00 0.00 0.00 48 1080.9
20260505063703 62 83 4.0 11.0 0.00 0.00 0.00 48 1081.2
20260505063603 62 83 4.0 11.0 0.00 0.00 0.00 48 1081.3
20260505063518 62 86 4.0 11.0 0.00 0.00 0.00 48 1081.3
20260505063503 62 87 4.0 11.0 0.00 0.00 0.00 48 1081.4
20260505063403 62 90 4.0 11.0 0.00 0.00 0.00 48 1081.2
20260505063203 62 96 4.0 10.0 0.00 0.00 0.00 48 1081.2
20260505063103 62 97 4.0 10.0 0.00 0.00 0.00 48 1081.2
20260505063003 62 99 4.0 10.0 0.00 0.00 0.00 48 1081.1
20260505062903 62 101 4.0 10.0 0.00 0.00 0.00 48 1081.2
20260505062803 61 103 4.0 10.0 0.00 0.00 0.00 48 1081.1
20260505062703 62 101 4.0 10.0 0.00 0.00 0.00 48 1081.2
20260505062603 62 101 4.0 10.0 0.00 0.00 0.00 48 1081.4
20260505062503 62 100 5.0 10.0 0.00 0.00 0.00 48 1081.1
20260505062403 62 100 5.0 10.0 0.00 0.00 0.00 48 1081.3
20260505062304 62 100 5.0 10.0 0.00 0.00 0.00 48 1081.2
20260505062217 62 97 4.0 10.0 0.00 0.00 0.00 48 1081.2
20260505062203 62 97 4.0 10.0 0.00 0.00 0.00 48 1080.9
20260505062103 61 98 5.0 10.0 0.00 0.00 0.00 49 1081.1
20260505061903 61 93 5.0 10.0 0.00 0.00 0.00 48 1081.2
20260505061803 61 91 5.0 10.0 0.00 0.00 0.00 49 1080.8
20260505061703 61 89 5.0 10.0 0.00 0.00 0.00 48 1081.1
20260505061617 61 88 5.0 10.0 0.00 0.00 0.00 49 1081.1
20260505061603 61 87 5.0 10.0 0.00 0.00 0.00 49 1081.3
20260505061518 61 86 5.0 10.0 0.00 0.00 0.00 49 1081.3
20260505061503 61 84 5.0 10.0 0.00 0.00 0.00 49 1081.1
20260505061203 60 80 5.0 10.0 0.00 0.00 0.00 50 1081.1
20260505061103 60 77 4.0 10.0 0.00 0.00 0.00 49 1081.1
20260505061003 60 73 4.0 10.0 0.00 0.00 0.00 50 1081.2
20260505060903 60 74 4.0 10.0 0.00 0.00 0.00 50 1081.4
20260505060803 60 74 4.0 10.0 0.00 0.00 0.00 50 1081.2
20260505060703 60 75 4.0 10.0 0.00 0.00 0.00 50 1081.2
20260505060603 60 72 3.0 10.0 0.00 0.00 0.00 50 1081.2
20260505060503 60 73 3.0 10.0 0.00 0.00 0.00 50 1081.3
20260505060403 59 75 3.0 10.0 0.00 0.00 0.00 50 1081.4
20260505060203 59 77 4.0 10.0 0.00 0.00 0.00 51 1080.9
20260505060103 59 82 5.0 10.0 0.00 0.00 0.00 51 1081.4
20260505060003 59 84 5.0 10.0 0.00 0.00 0.00 51 1080.9
20260505055903 59 88 5.0 10.0 0.00 0.00 0.00 51 1081.1
20260505055803 59 89 5.0 10.0 0.00 0.00 0.00 50 1081.3
20260505055703 59 89 5.0 10.0 0.00 0.00 0.00 51 1081.1
20260505055603 59 91 5.0 10.0 0.00 0.00 0.00 50 1081.1
20260505055503 59 89 5.0 10.0 0.00 0.00 0.00 50 1081.1
20260505055418 59 89 5.0 10.0 0.00 0.00 0.00 51 1081.4
20260505055403 59 90 5.0 10.0 0.00 0.00 0.00 51 1081.4
20260505055304 59 86 5.0 9.0 0.00 0.00 0.00 51 1081.3
20260505055103 59 80 5.0 11.0 0.00 0.00 0.00 51 1081.4
20260505055017 59 78 5.0 11.0 0.00 0.00 0.00 51 1081.3
20260505055003 59 78 5.0 11.0 0.00 0.00 0.00 51 1081.3
20260505054903 59 76 5.0 11.0 0.00 0.00 0.00 50 1081.3
20260505054703 59 73 4.0 11.0 0.00 0.00 0.00 51 1081.4
20260505054603 59 71 4.0 11.0 0.00 0.00 0.00 51 1081.4
20260505054503 59 73 4.0 11.0 0.00 0.00 0.00 51 1081.2
20260505054403 59 69 5.0 11.0 0.00 0.00 0.00 51 1081.4
20260505054303 59 71 4.0 11.0 0.00 0.00 0.00 51 1081.4
20260505054203 59 72 4.0 10.0 0.00 0.00 0.00 51 1081.3
20260505054103 59 70 4.0 10.0 0.00 0.00 0.00 51 1081.3
20260505054003 59 67 4.0 10.0 0.00 0.00 0.00 51 1081.3
20260505053903 58 62 3.0 10.0 0.00 0.00 0.00 51 1081.2
20260505053803 58 62 3.0 10.0 0.00 0.00 0.00 52 1081.3
20260505053703 58 63 4.0 10.0 0.00 0.00 0.00 52 1081.2
20260505053603 58 64 3.0 10.0 0.00 0.00 0.00 53 1081.3
20260505053503 58 64 3.0 10.0 0.00 0.00 0.00 52 1081.1
20260505053403 58 65 3.0 9.0 0.00 0.00 0.00 52 1081.2
20260505053317 58 66 3.0 9.0 0.00 0.00 0.00 52 1081.1
20260505053303 58 65 3.0 9.0 0.00 0.00 0.00 52 1081.1
20260505053217 58 68 3.0 9.0 0.00 0.00 0.00 52 1081.3
20260505053203 58 69 3.0 9.0 0.00 0.00 0.00 52 1081.3
20260505052903 58 80 4.0 11.0 0.00 0.00 0.00 53 1081.2
20260505052803 58 79 5.0 11.0 0.00 0.00 0.00 52 1081.2
20260505052718 58 78 5.0 11.0 0.00 0.00 0.00 53 1081.3
20260505052703 58 78 5.0 11.0 0.00 0.00 0.00 53 1081.3
20260505052617 58 77 5.0 11.0 0.00 0.00 0.00 54 1081.2
20260505052603 58 76 5.0 11.0 0.00 0.00 0.00 54 1081.2
20260505052304 57 79 5.0 11.0 0.00 0.00 0.00 53 1081.1
20260505052203 57 79 5.0 11.0 0.00 0.00 0.00 53 1081.2
20260505052103 57 77 5.0 11.0 0.00 0.00 0.00 53 1081.1
20260505052003 57 77 5.0 11.0 0.00 0.00 0.00 54 1081.2
20260505051903 57 72 4.0 10.0 0.00 0.00 0.00 54 1081.2
20260505051803 57 74 4.0 10.0 0.00 0.00 0.00 53 1081.1
20260505051703 57 78 4.0 9.0 0.00 0.00 0.00 54 1080.9
20260505051603 57 81 3.0 9.0 0.00 0.00 0.00 54 1080.9
20260505051503 57 83 3.0 9.0 0.00 0.00 0.00 55 1081.1
20260505051418 57 80 3.0 9.0 0.00 0.00 0.00 55 1081.1
20260505051403 57 79 3.0 9.0 0.00 0.00 0.00 55 1081.1
20260505051303 57 76 3.0 7.0 0.00 0.00 0.00 56 1081.1
20260505051003 56 82 2.0 7.0 0.00 0.00 0.00 56 1081.1
20260505050903 56 84 2.0 7.0 0.00 0.00 0.00 56 1081.2
20260505050803 56 83 2.0 7.0 0.00 0.00 0.00 56 1081.1
20260505050718 56 83 2.0 7.0 0.00 0.00 0.00 56 1081.1
20260505050703 56 82 2.0 7.0 0.00 0.00 0.00 56 1081.1
20260505050603 56 84 2.0 7.0 0.00 0.00 0.00 56 1081.2
20260505050403 56 89 2.0 6.0 0.00 0.00 0.00 56 1081.2
20260505050303 56 90 2.0 4.0 0.00 0.00 0.00 57 1081.2
20260505050203 56 90 1.0 4.0 0.00 0.00 0.00 57 1081.3
20260505050103 56 87 1.0 4.0 0.00 0.00 0.00 58 1081.3
20260505041703 51 59 0.0 2.0 0.00 0.00 0.00 66 1081.2
20260505041618 51 59 0.0 2.0 0.00 0.00 0.00 66 1081.2
20260505041603 51 59 0.0 2.0 0.00 0.00 0.00 65 1081.4
20260505041517 51 48 0.0 2.0 0.00 0.00 0.00 65 1081.4
20260505041503 51 51 0.0 2.0 0.00 0.00 0.00 65 1081.2
20260505041203 51 55 0.0 2.0 0.00 0.00 0.00 64 1080.9
20260505041103 51 56 0.0 2.0 0.00 0.00 0.00 65 1081.2
20260505041003 51 52 1.0 2.0 0.00 0.00 0.00 64 1081.2
20260505040903 51 50 1.0 2.0 0.00 0.00 0.00 64 1081.3
20260505040803 51 48 1.0 2.0 0.00 0.00 0.00 64 1081.1
20260505040718 51 45 1.0 2.0 0.00 0.00 0.00 65 1081.1
20260505040703 51 44 1.0 2.0 0.00 0.00 0.00 65 1081.3
20260505040603 51 44 1.0 2.0 0.00 0.00 0.00 64 1081.3
20260505040403 51 42 0.0 2.0 0.00 0.00 0.00 64 1081.1
20260505040318 51 42 0.0 2.0 0.00 0.00 0.00 64 1081.1
20260505040303 51 42 0.0 2.0 0.00 0.00 0.00 64 1081.4
20260505040203 51 42 0.0 2.0 0.00 0.00 0.00 64 1081.4
20260505040004 51 47 0.0 2.0 0.00 0.00 0.00 64 1080.9
20260505035903 52 49 0.0 2.0 0.00 0.00 0.00 64 1081.1
20260505035803 52 51 0.0 2.0 0.00 0.00 0.00 64 1081.4
20260505035703 52 57 0.0 2.0 0.00 0.00 0.00 63 1081.2
20260505035603 51 59 0.0 2.0 0.00 0.00 0.00 64 1081.1
20260505035503 51 59 0.0 2.0 0.00 0.00 0.00 64 1081.3
20260505035403 51 54 0.0 2.0 0.00 0.00 0.00 64 1081.2
20260505035304 51 53 0.0 2.0 0.00 0.00 0.00 64 1081.1
20260505035203 51 53 0.0 2.0 0.00 0.00 0.00 64 1081.2
20260505035103 51 46 0.0 4.0 0.00 0.00 0.00 64 1081.1
20260505035003 51 45 1.0 6.0 0.00 0.00 0.00 64 1081.1
20260505034903 51 46 1.0 6.0 0.00 0.00 0.00 64 1081.3
20260505034803 51 44 1.0 6.0 0.00 0.00 0.00 64 1081.3
20260505034703 51 44 1.0 6.0 0.00 0.00 0.00 64 1081.3
20260505034503 51 43 1.0 6.0 0.00 0.00 0.00 64 1081.4
20260505034403 51 42 1.0 6.0 0.00 0.00 0.00 63 1081.4
20260505034303 51 41 1.0 6.0 0.00 0.00 0.00 64 1081.1
20260505034203 51 41 1.0 6.0 0.00 0.00 0.00 64 1081.2
20260505034103 51 40 1.0 6.0 0.00 0.00 0.00 64 1081.2
20260505034003 51 39 1.0 3.0 0.00 0.00 0.00 64 1081.5
20260505033903 51 38 1.0 3.0 0.00 0.00 0.00 63 1081.2
20260505033803 51 42 1.0 4.0 0.00 0.00 0.00 64 1081.1
20260505033718 51 40 1.0 4.0 0.00 0.00 0.00 64 1081.2
20260505033703 51 40 1.0 4.0 0.00 0.00 0.00 63 1081.2
20260505033603 51 43 1.0 4.0 0.00 0.00 0.00 64 1081.4
20260505033403 51 47 1.0 4.0 0.00 0.00 0.00 64 1081.2
20260505033303 51 49 1.0 4.0 0.00 0.00 0.00 64 1081.4
20260505033203 51 50 2.0 4.0 0.00 0.00 0.00 64 1081.3
20260505033103 51 51 2.0 4.0 0.00 0.00 0.00 64 1081.5
20260505033003 51 51 2.0 4.0 0.00 0.00 0.00 64 1081.5
20260505032918 51 51 2.0 4.0 0.00 0.00 0.00 65 1081.3
20260505032903 51 52 2.0 4.0 0.00 0.00 0.00 65 1081.3
20260505032803 51 52 2.0 4.0 0.00 0.00 0.00 65 1081.5
20260505032603 51 53 1.0 4.0 0.00 0.00 0.00 65 1081.5
20260505032503 51 52 1.0 4.0 0.00 0.00 0.00 65 1081.5
20260505032403 51 54 1.0 4.0 0.00 0.00 0.00 65 1081.5
20260505032304 51 55 1.0 4.0 0.00 0.00 0.00 65 1081.3
20260505032218 51 55 1.0 3.0 0.00 0.00 0.00 64 1081.6
20260505032203 51 55 0.0 3.0 0.00 0.00 0.00 64 1081.6
20260505032103 51 56 0.0 3.0 0.00 0.00 0.00 64 1081.5
20260505031903 51 41 0.0 3.0 0.00 0.00 0.00 65 1081.5
20260505031803 51 312 0.0 1.0 0.00 0.00 0.00 64 1081.5
20260505031703 51 311 0.0 1.0 0.00 0.00 0.00 64 1081.4
20260505031603 51 311 0.0 1.0 0.00 0.00 0.00 64 1081.7
20260505031403 51 327 0.0 1.0 0.00 0.00 0.00 64 1081.8
20260505031303 51 353 0.0 2.0 0.00 0.00 0.00 64 1081.7
20260505031203 51 356 0.0 2.0 0.00 0.00 0.00 64 1081.5
20260505031103 51 18 0.0 2.0 0.00 0.00 0.00 65 1081.7
20260505031003 51 31 0.0 2.0 0.00 0.00 0.00 65 1081.5
20260505030903 51 44 0.0 2.0 0.00 0.00 0.00 65 1081.6
20260505030803 51 41 1.0 3.0 0.00 0.00 0.00 66 1081.4
20260505030717 51 46 1.0 3.0 0.00 0.00 0.00 67 1081.8
20260505030703 51 47 1.0 3.0 0.00 0.00 0.00 67 1081.8
20260505030603 51 47 1.0 3.0 0.00 0.00 0.00 65 1081.7
20260505030403 51 47 1.0 3.0 0.00 0.00 0.00 65 1081.6
20260505030303 51 48 1.0 3.0 0.00 0.00 0.00 65 1081.9
20260505030203 51 48 1.0 3.0 0.00 0.00 0.00 65 1081.8
20260505030003 51 43 1.0 3.0 0.00 0.00 0.00 65 1081.7
20260505025903 51 40 1.0 3.0 0.00 0.00 0.00 65 1081.6
20260505025803 51 45 1.0 3.0 0.00 0.00 0.00 65 1081.6
20260505025603 51 48 0.0 3.0 0.00 0.00 0.00 66 1081.7
20260505025503 51 48 0.0 2.0 0.00 0.00 0.00 66 1081.9
20260505025403 51 45 0.0 1.0 0.00 0.00 0.00 66 1081.6
20260505025304 51 0 0.0 0.0 0.00 0.00 0.00 66 1081.7
20260505025203 51 0 0.0 0.0 0.00 0.00 0.00 66 1081.8
20260505025104 51 25 0.0 2.0 0.00 0.00 0.00 66 1081.6
20260505025004 51 29 0.0 2.0 0.00 0.00 0.00 65 1081.9
20260505024903 51 24 0.0 2.0 0.00 0.00 0.00 65 1081.8
20260505024803 51 23 0.0 2.0 0.00 0.00 0.00 66 1081.9
20260505024703 51 10 0.0 2.0 0.00 0.00 0.00 65 1082.0
20260505024603 51 13 0.0 2.0 0.00 0.00 0.00 66 1081.9
20260505024503 51 12 0.0 2.0 0.00 0.00 0.00 65 1081.9
20260505024417 51 12 0.0 2.0 0.00 0.00 0.00 65 1082.0
20260505024403 51 13 0.0 2.0 0.00 0.00 0.00 65 1082.0
20260505024318 51 17 0.0 2.0 0.00 0.00 0.00 67 1082.0
20260505024303 51 18 1.0 2.0 0.00 0.00 0.00 67 1082.0
20260505024003 51 27 1.0 2.0 0.00 0.00 0.00 64 1081.9
20260505023903 51 30 1.0 2.0 0.00 0.00 0.00 65 1081.8
20260505023803 51 35 1.0 2.0 0.00 0.00 0.00 65 1082.0
20260505023703 51 46 1.0 3.0 0.00 0.00 0.00 65 1082.1
20260505023603 51 49 1.0 3.0 0.00 0.00 0.00 63 1082.2
20260505023503 51 53 1.0 3.0 0.00 0.00 0.00 63 1082.1
20260505023403 51 54 1.0 3.0 0.00 0.00 0.00 63 1081.9
20260505023303 51 55 0.0 3.0 0.00 0.00 0.00 63 1082.2
20260505023203 51 54 0.0 3.0 0.00 0.00 0.00 63 1081.9
20260505023103 51 54 0.0 3.0 0.00 0.00 0.00 63 1082.0
20260505023003 51 52 0.0 3.0 0.00 0.00 0.00 62 1082.0
20260505022918 51 52 0.0 3.0 0.00 0.00 0.00 62 1082.1
20260505022903 51 53 0.0 3.0 0.00 0.00 0.00 62 1082.1
20260505022803 51 57 0.0 3.0 0.00 0.00 0.00 63 1082.1
20260505022603 51 58 0.0 1.0 0.00 0.00 0.00 62 1081.9
20260505022503 51 58 0.0 1.0 0.00 0.00 0.00 62 1082.2
20260505022403 51 58 0.0 1.0 0.00 0.00 0.00 62 1082.0
20260505022304 51 58 0.0 1.0 0.00 0.00 0.00 62 1082.4
20260505022203 51 58 0.0 1.0 0.00 0.00 0.00 62 1082.2
20260505022003 52 58 0.0 1.0 0.00 0.00 0.00 61 1082.3
20260505021903 52 58 0.0 1.0 0.00 0.00 0.00 61 1082.4
20260505021803 52 58 0.0 1.0 0.00 0.00 0.00 61 1082.3
20260505021703 52 47 0.0 1.0 0.00 0.00 0.00 60 1082.2
20260505021603 52 50 0.0 1.0 0.00 0.00 0.00 60 1082.3
20260505021503 52 50 0.0 1.0 0.00 0.00 0.00 60 1082.1
20260505021403 52 50 0.0 1.0 0.00 0.00 0.00 61 1082.2
20260505021303 52 50 0.0 1.0 0.00 0.00 0.00 62 1082.1
20260505021203 52 50 0.0 1.0 0.00 0.00 0.00 60 1082.3
20260505021103 52 50 0.0 1.0 0.00 0.00 0.00 60 1082.2
20260505021003 52 50 0.0 1.0 0.00 0.00 0.00 60 1082.2
20260505020903 52 50 0.0 1.0 0.00 0.00 0.00 60 1082.1
20260505020603 53 51 0.0 1.0 0.00 0.00 0.00 60 1082.2
20260505020503 53 0 0.0 0.0 0.00 0.00 0.00 60 1082.3
20260505020403 53 0 0.0 0.0 0.00 0.00 0.00 60 1082.4
20260505020303 53 0 0.0 0.0 0.00 0.00 0.00 60 1082.1
20260505020203 53 0 0.0 0.0 0.00 0.00 0.00 60 1082.4
20260505020103 53 0 0.0 0.0 0.00 0.00 0.00 60 1082.5
20260505020003 53 0 0.0 0.0 0.00 0.00 0.00 60 1082.3
20260505015903 53 278 0.0 1.0 0.00 0.00 0.00 60 1082.4
20260505015803 54 291 0.0 1.0 0.00 0.00 0.00 60 1082.4
20260505015703 54 310 0.0 2.0 0.00 0.00 0.00 59 1082.4
20260505015617 54 312 0.0 2.0 0.00 0.00 0.00 58 1082.3
20260505015603 54 314 0.0 2.0 0.00 0.00 0.00 58 1082.3
20260505015503 54 325 0.0 2.0 0.00 0.00 0.00 58 1082.5
20260505015416 54 329 1.0 2.0 0.00 0.00 0.00 58 1082.5
20260505015304 54 333 1.0 2.0 0.00 0.00 0.00 58 1082.5
20260505015116 54 332 1.0 2.0 0.00 0.00 0.00 59 1082.6
20260505015103 54 332 1.0 2.0 0.00 0.00 0.00 60 1082.6
20260505015003 54 332 1.0 2.0 0.00 0.00 0.00 58 1082.5
20260505014803 54 339 1.0 2.0 0.00 0.00 0.00 59 1082.6
20260505014703 54 338 1.0 2.0 0.00 0.00 0.00 58 1082.3
20260505014603 54 339 1.0 2.0 0.00 0.00 0.00 57 1082.8
20260505014503 54 333 1.0 2.0 0.00 0.00 0.00 57 1082.4
20260505014417 54 324 0.0 2.0 0.00 0.00 0.00 57 1082.4
20260505014403 54 317 0.0 2.0 0.00 0.00 0.00 57 1082.6
20260505014303 54 303 1.0 2.0 0.00 0.00 0.00 57 1082.6
20260505014218 55 294 1.0 2.0 0.00 0.00 0.00 57 1082.6
20260505014103 55 274 1.0 2.0 0.00 0.00 0.00 57 1082.5
20260505013903 55 271 1.0 2.0 0.00 0.00 0.00 56 1082.5
20260505013803 55 270 1.0 2.0 0.00 0.00 0.00 56 1082.7
20260505013703 55 268 0.0 2.0 0.00 0.00 0.00 56 1082.7
20260505013603 55 267 1.0 2.0 0.00 0.00 0.00 56 1082.5
20260505013503 55 262 1.0 2.0 0.00 0.00 0.00 56 1082.6
20260505013403 55 262 1.0 2.0 0.00 0.00 0.00 57 1082.4
20260505013303 55 253 0.0 2.0 0.00 0.00 0.00 56 1082.7
20260505013218 55 162 0.0 2.0 0.00 0.00 0.00 56 1082.7
20260505013203 56 102 0.0 2.0 0.00 0.00 0.00 56 1082.3
20260505013103 56 85 0.0 3.0 0.00 0.00 0.00 56 1082.5
20260505012903 55 70 1.0 3.0 0.00 0.00 0.00 56 1082.3
20260505012803 55 70 1.0 3.0 0.00 0.00 0.00 56 1082.3
20260505012703 55 69 1.0 3.0 0.00 0.00 0.00 55 1082.4
20260505012617 55 68 1.0 3.0 0.00 0.00 0.00 55 1082.4
20260505012603 55 66 1.0 3.0 0.00 0.00 0.00 55 1082.3
20260505012518 55 65 1.0 3.0 0.00 0.00 0.00 54 1082.3
20260505012503 55 64 1.0 3.0 0.00 0.00 0.00 54 1082.3
20260505012203 56 61 1.0 4.0 0.00 0.00 0.00 54 1082.3
20260505012103 56 62 1.0 4.0 0.00 0.00 0.00 55 1082.3
20260505012003 56 63 1.0 4.0 0.00 0.00 0.00 54 1082.5
20260505011903 56 62 1.0 4.0 0.00 0.00 0.00 54 1082.2
20260505011803 56 61 1.0 4.0 0.00 0.00 0.00 54 1082.4
20260505011703 56 59 1.0 4.0 0.00 0.00 0.00 54 1082.5
20260505011603 56 59 1.0 4.0 0.00 0.00 0.00 54 1082.4
20260505011503 56 59 1.0 4.0 0.00 0.00 0.00 54 1082.6
20260505011303 56 56 1.0 3.0 0.00 0.00 0.00 54 1082.6
20260505011203 56 51 1.0 3.0 0.00 0.00 0.00 54 1082.4
20260505011103 56 43 1.0 3.0 0.00 0.00 0.00 54 1082.3
20260505011003 56 43 1.0 3.0 0.00 0.00 0.00 54 1082.4
20260505010903 56 42 1.0 3.0 0.00 0.00 0.00 54 1082.3
20260505010803 56 42 0.0 2.0 0.00 0.00 0.00 54 1082.3
20260505010703 56 42 0.0 2.0 0.00 0.00 0.00 54 1082.3
20260505010603 56 39 0.0 2.0 0.00 0.00 0.00 53 1082.3
20260505010518 56 37 0.0 2.0 0.00 0.00 0.00 53 1082.4
20260505010403 56 34 0.0 2.0 0.00 0.00 0.00 53 1082.4
20260505010203 56 19 1.0 2.0 0.00 0.00 0.00 53 1082.5
20260505010103 56 20 0.0 2.0 0.00 0.00 0.00 53 1082.5
20260505010003 57 10 0.0 2.0 0.00 0.00 0.00 53 1082.4
20260505005903 57 10 0.0 2.0 0.00 0.00 0.00 52 1082.5
20260505005803 57 11 0.0 2.0 0.00 0.00 0.00 53 1082.3
20260505005703 57 23 1.0 2.0 0.00 0.00 0.00 53 1082.5
20260505005503 57 22 1.0 2.0 0.00 0.00 0.00 53 1082.7
20260505005403 57 13 0.0 2.0 0.00 0.00 0.00 53 1082.4
20260505005304 57 6 1.0 2.0 0.00 0.00 0.00 53 1082.6
20260505005217 57 15 0.0 2.0 0.00 0.00 0.00 52 1082.5
20260505005203 57 16 0.0 2.0 0.00 0.00 0.00 52 1082.5
20260505005118 57 21 1.0 2.0 0.00 0.00 0.00 52 1082.5
20260505005103 57 23 1.0 2.0 0.00 0.00 0.00 52 1082.5
20260505004803 57 33 1.0 4.0 0.00 0.00 0.00 52 1082.4
20260505004703 57 33 1.0 4.0 0.00 0.00 0.00 52 1082.5
20260505004603 57 35 1.0 4.0 0.00 0.00 0.00 52 1082.6
20260505004503 57 35 1.0 4.0 0.00 0.00 0.00 52 1082.5
20260505004203 57 43 1.0 4.0 0.00 0.00 0.00 52 1082.7
20260505004103 57 41 1.0 4.0 0.00 0.00 0.00 52 1082.5
20260505004003 58 38 1.0 4.0 0.00 0.00 0.00 52 1082.5
20260505003903 58 38 1.0 4.0 0.00 0.00 0.00 52 1082.6
20260505003803 58 39 1.0 4.0 0.00 0.00 0.00 52 1082.8
20260505003703 58 32 0.0 3.0 0.00 0.00 0.00 52 1082.5
20260505003603 58 28 0.0 2.0 0.00 0.00 0.00 52 1082.7
20260505003503 58 28 0.0 2.0 0.00 0.00 0.00 52 1082.8
20260505003403 58 28 0.0 2.0 0.00 0.00 0.00 51 1082.5
20260505003317 58 34 0.0 2.0 0.00 0.00 0.00 52 1082.5
20260505003303 58 37 0.0 2.0 0.00 0.00 0.00 52 1082.5
20260505003003 58 54 0.0 2.0 0.00 0.00 0.00 52 1082.6
20260505002903 58 59 0.0 3.0 0.00 0.00 0.00 52 1082.6
20260505002803 58 58 0.0 3.0 0.00 0.00 0.00 51 1082.5
20260505002718 58 55 1.0 4.0 0.00 0.00 0.00 51 1082.7
20260505002703 58 54 1.0 6.0 0.00 0.00 0.00 51 1082.7
20260505002603 58 62 1.0 7.0 0.00 0.00 0.00 51 1083.0
20260505002403 58 63 1.0 7.0 0.00 0.00 0.00 52 1082.7
20260505002304 58 61 2.0 7.0 0.00 0.00 0.00 51 1082.7
20260505002203 58 60 2.0 7.0 0.00 0.00 0.00 51 1082.8
20260505002003 58 62 2.0 7.0 0.00 0.00 0.00 51 1082.8
20260505001903 58 64 2.0 7.0 0.00 0.00 0.00 51 1082.8
20260505001803 58 65 2.0 7.0 0.00 0.00 0.00 51 1083.1
20260505001703 58 66 2.0 7.0 0.00 0.00 0.00 52 1082.8
20260505001617 58 63 2.0 7.0 0.00 0.00 0.00 52 1083.0
20260505001603 58 64 2.0 7.0 0.00 0.00 0.00 52 1083.0
20260505001503 58 65 2.0 7.0 0.00 0.00 0.00 52 1083.0
20260505001303 58 69 2.0 7.0 0.00 0.00 0.00 52 1083.0
20260505001203 58 72 2.0 7.0 0.00 0.00 0.00 52 1083.0
20260505001103 58 72 1.0 7.0 0.00 0.00 0.00 52 1083.2
20260505001003 58 72 1.0 7.0 0.00 0.00 0.00 52 1083.0
20260505000903 58 72 1.0 6.0 0.00 0.00 0.00 52 1082.8
20260505000803 58 70 1.0 6.0 0.00 0.00 0.00 52 1083.1
20260505000603 58 68 1.0 6.0 0.00 0.00 0.00 52 1083.2
20260505000503 58 66 1.0 4.0 0.00 0.00 0.00 52 1082.8
20260505000405 58 64 1.0 4.0 0.00 0.00 0.00 52 1082.7
20260505000303 58 65 1.0 6.0 0.00 0.00 0.00 52 1083.1
20260505000204 58 66 2.0 6.0 0.00 0.00 0.00 52 1083.1
20260505000103 58 66 2.0 6.0 0.00 0.00 0.00 52 1083.1
20260505000018 58 67 2.0 6.0 0.00 0.00 0.00 52 1082.8
20260505000003 58 66 2.0 6.0 0.00 0.00 0.00 52 1082.8
20260504235903 58 65 2.0 6.0 0.00 0.00 0.00 52 1083.1
20260504235703 58 67 2.0 6.0 0.00 0.00 0.00 52 1083.1
20260504235603 58 65 2.0 6.0 0.00 0.00 0.00 52 1083.0
20260504235503 58 67 2.0 6.0 0.00 0.00 0.00 52 1083.1
20260504235403 58 66 2.0 6.0 0.00 0.00 0.00 52 1083.1
20260504235304 58 66 1.0 6.0 0.00 0.00 0.00 52 1083.1
20260504235203 58 63 1.0 4.0 0.00 0.00 0.00 52 1083.2
20260504235103 58 67 1.0 4.0 0.00 0.00 0.00 52 1083.4
20260504235003 58 67 1.0 4.0 0.00 0.00 0.00 52 1083.3
20260504234903 58 63 1.0 6.0 0.00 0.00 0.00 52 1083.0
20260504234803 58 61 1.0 6.0 0.00 0.00 0.00 52 1083.3
20260504234703 58 60 2.0 6.0 0.00 0.00 0.00 52 1083.3
20260504234603 58 63 2.0 6.0 0.00 0.00 0.00 52 1083.3
20260504234503 58 61 2.0 6.0 0.00 0.00 0.00 52 1083.3
20260504234403 58 60 2.0 6.0 0.00 0.00 0.00 52 1083.4
20260504234303 58 61 2.0 6.0 0.00 0.00 0.00 52 1083.3
20260504234203 58 62 2.0 6.0 0.00 0.00 0.00 52 1083.2
20260504234103 58 60 2.0 6.0 0.00 0.00 0.00 52 1083.4
20260504234003 58 59 2.0 6.0 0.00 0.00 0.00 52 1083.4
20260504233903 58 61 2.0 6.0 0.00 0.00 0.00 52 1083.2
20260504233803 58 63 2.0 6.0 0.00 0.00 0.00 52 1083.2
20260504233703 58 63 2.0 6.0 0.00 0.00 0.00 52 1083.3
20260504233603 58 61 2.0 6.0 0.00 0.00 0.00 52 1083.3
20260504233503 58 62 3.0 7.0 0.00 0.00 0.00 52 1083.4
20260504233403 58 64 2.0 7.0 0.00 0.00 0.00 52 1083.3
20260504233303 58 66 3.0 7.0 0.00 0.00 0.00 52 1083.6
20260504233217 58 65 3.0 7.0 0.00 0.00 0.00 52 1083.2
20260504233203 58 64 2.0 7.0 0.00 0.00 0.00 52 1083.2
20260504233103 58 65 2.0 7.0 0.00 0.00 0.00 52 1083.2
20260504233018 58 65 2.0 7.0 0.00 0.00 0.00 52 1083.3
20260504232903 58 67 2.0 7.0 0.00 0.00 0.00 52 1083.5
20260504232703 58 67 2.0 7.0 0.00 0.00 0.00 52 1083.3
20260504232603 58 69 2.0 7.0 0.00 0.00 0.00 52 1083.3
20260504232503 58 69 2.0 6.0 0.00 0.00 0.00 52 1083.4
20260504232403 58 72 2.0 6.0 0.00 0.00 0.00 52 1083.4
20260504232304 58 69 2.0 4.0 0.00 0.00 0.00 51 1083.4
20260504232203 58 70 2.0 4.0 0.00 0.00 0.00 51 1083.5
20260504232103 58 71 1.0 4.0 0.00 0.00 0.00 51 1083.3
20260504231903 58 71 1.0 4.0 0.00 0.00 0.00 51 1083.3
20260504231803 58 70 1.0 4.0 0.00 0.00 0.00 51 1083.4
20260504231718 59 73 1.0 3.0 0.00 0.00 0.00 51 1083.5
20260504231703 59 76 1.0 3.0 0.00 0.00 0.00 51 1083.5
20260504231603 59 72 1.0 4.0 0.00 0.00 0.00 51 1083.4
20260504231403 59 58 1.0 7.0 0.00 0.00 0.00 51 1083.4
20260504231303 59 62 2.0 7.0 0.00 0.00 0.00 50 1083.4
20260504231203 59 62 2.0 7.0 0.00 0.00 0.00 50 1083.4
20260504231103 59 60 2.0 7.0 0.00 0.00 0.00 51 1083.6
20260504231003 59 60 2.0 7.0 0.00 0.00 0.00 50 1083.7
20260504230903 59 61 2.0 7.0 0.00 0.00 0.00 50 1083.6
20260504230803 59 61 3.0 7.0 0.00 0.00 0.00 51 1083.5
20260504230703 59 62 3.0 7.0 0.00 0.00 0.00 51 1083.4
20260504230603 59 63 3.0 7.0 0.00 0.00 0.00 51 1083.5
20260504230503 59 65 3.0 7.0 0.00 0.00 0.00 50 1083.4
20260504230403 59 68 3.0 7.0 0.00 0.00 0.00 51 1083.4
20260504230303 59 68 3.0 7.0 0.00 0.00 0.00 51 1083.6
20260504230203 59 69 3.0 7.0 0.00 0.00 0.00 51 1083.6
20260504230117 59 72 3.0 7.0 0.00 0.00 0.00 51 1083.6
20260504225804 59 81 4.0 7.0 0.00 0.00 0.00 51 1083.5
20260504225703 59 83 4.0 7.0 0.00 0.00 0.00 50 1083.6
20260504225603 59 88 4.0 7.0 0.00 0.00 0.00 50 1083.7
20260504225304 59 90 4.0 7.0 0.00 0.00 0.00 50 1083.7
20260504225203 59 90 4.0 7.0 0.00 0.00 0.00 50 1083.7
20260504225103 59 89 4.0 7.0 0.00 0.00 0.00 50 1083.9
20260504225003 59 87 4.0 7.0 0.00 0.00 0.00 50 1083.7
20260504224903 59 86 4.0 7.0 0.00 0.00 0.00 50 1083.7
20260504224803 59 83 4.0 7.0 0.00 0.00 0.00 50 1083.6
20260504224703 59 81 3.0 7.0 0.00 0.00 0.00 50 1083.8
20260504224603 59 79 4.0 8.0 0.00 0.00 0.00 50 1083.8
20260504224503 59 80 4.0 8.0 0.00 0.00 0.00 50 1083.8
20260504224403 59 80 4.0 8.0 0.00 0.00 0.00 50 1083.8
20260504224303 59 78 4.0 8.0 0.00 0.00 0.00 50 1083.9
20260504224103 60 81 4.0 8.0 0.00 0.00 0.00 50 1083.9
20260504224003 60 80 4.0 8.0 0.00 0.00 0.00 50 1083.8
20260504223903 60 80 4.0 8.0 0.00 0.00 0.00 50 1083.7
20260504223803 60 80 4.0 8.0 0.00 0.00 0.00 50 1083.8
20260504223703 60 82 4.0 8.0 0.00 0.00 0.00 50 1083.8
20260504223603 60 79 4.0 7.0 0.00 0.00 0.00 50 1083.6
20260504223503 60 79 3.0 7.0 0.00 0.00 0.00 50 1083.8
20260504223403 60 78 3.0 7.0 0.00 0.00 0.00 50 1084.0
20260504223303 60 77 3.0 7.0 0.00 0.00 0.00 50 1083.5
20260504223203 60 75 3.0 7.0 0.00 0.00 0.00 50 1083.7
20260504223103 60 72 3.0 7.0 0.00 0.00 0.00 50 1083.7
20260504223004 60 73 3.0 8.0 0.00 0.00 0.00 50 1083.9
20260504222903 60 72 3.0 8.0 0.00 0.00 0.00 50 1083.8
20260504222803 60 74 4.0 8.0 0.00 0.00 0.00 50 1083.9
20260504222703 60 72 4.0 8.0 0.00 0.00 0.00 50 1083.8
20260504222603 59 73 4.0 8.0 0.00 0.00 0.00 50 1083.8
20260504222503 60 71 4.0 8.0 0.00 0.00 0.00 51 1083.8
20260504222403 60 72 4.0 8.0 0.00 0.00 0.00 50 1083.7
20260504222203 60 74 4.0 8.0 0.00 0.00 0.00 50 1083.6
20260504222103 60 76 4.0 8.0 0.00 0.00 0.00 50 1084.0
20260504222003 60 76 4.0 9.0 0.00 0.00 0.00 50 1084.1
20260504221903 60 74 4.0 9.0 0.00 0.00 0.00 50 1083.9
20260504221803 60 74 4.0 9.0 0.00 0.00 0.00 50 1084.0
20260504221703 60 74 4.0 9.0 0.00 0.00 0.00 50 1084.0
20260504221603 60 75 4.0 9.0 0.00 0.00 0.00 50 1083.9
20260504221503 60 73 4.0 9.0 0.00 0.00 0.00 50 1083.9
20260504221403 60 74 4.0 9.0 0.00 0.00 0.00 50 1083.8
20260504221303 60 71 4.0 9.0 0.00 0.00 0.00 50 1083.8
20260504221203 60 70 3.0 9.0 0.00 0.00 0.00 50 1083.7
20260504221103 60 67 3.0 9.0 0.00 0.00 0.00 51 1083.5
20260504221003 60 68 3.0 8.0 0.00 0.00 0.00 50 1084.0
20260504220903 60 69 3.0 8.0 0.00 0.00 0.00 51 1083.9
20260504220803 60 69 3.0 8.0 0.00 0.00 0.00 50 1084.0
20260504220703 60 67 3.0 8.0 0.00 0.00 0.00 51 1083.8
20260504220603 60 68 2.0 7.0 0.00 0.00 0.00 50 1083.8
20260504220503 60 72 2.0 7.0 0.00 0.00 0.00 51 1084.0
20260504220403 60 69 2.0 7.0 0.00 0.00 0.00 51 1084.0
20260504220303 60 66 2.0 7.0 0.00 0.00 0.00 51 1084.0
20260504220203 60 63 3.0 7.0 0.00 0.00 0.00 51 1084.2
20260504220117 60 64 3.0 7.0 0.00 0.00 0.00 51 1084.0
20260504220004 60 64 2.0 7.0 0.00 0.00 0.00 51 1084.2
20260504215817 60 61 2.0 7.0 0.00 0.00 0.00 51 1084.0
20260504215803 60 60 2.0 7.0 0.00 0.00 0.00 51 1084.0
20260504215717 60 60 2.0 7.0 0.00 0.00 0.00 51 1084.0
20260504215703 60 61 2.0 7.0 0.00 0.00 0.00 51 1084.0
20260504215403 60 57 3.0 7.0 0.00 0.00 0.00 51 1084.2
20260504215304 60 60 3.0 7.0 0.00 0.00 0.00 51 1083.9
20260504215218 60 64 2.0 7.0 0.00 0.00 0.00 51 1084.3
20260504215103 60 63 3.0 8.0 0.00 0.00 0.00 50 1084.1
20260504214903 60 63 3.0 8.0 0.00 0.00 0.00 51 1084.1
20260504214803 60 64 3.0 8.0 0.00 0.00 0.00 51 1084.2
20260504214703 60 63 3.0 8.0 0.00 0.00 0.00 51 1084.0
20260504214603 60 63 4.0 8.0 0.00 0.00 0.00 51 1084.0
20260504214503 60 65 4.0 8.0 0.00 0.00 0.00 51 1084.2
20260504214403 60 66 4.0 8.0 0.00 0.00 0.00 51 1084.2
20260504214303 60 67 4.0 8.0 0.00 0.00 0.00 51 1084.2
20260504214117 60 66 4.0 8.0 0.00 0.00 0.00 51 1084.1
20260504214103 60 67 4.0 7.0 0.00 0.00 0.00 51 1084.1
20260504214003 60 66 4.0 7.0 0.00 0.00 0.00 52 1084.1
20260504213803 60 66 3.0 7.0 0.00 0.00 0.00 52 1084.2
20260504213703 60 66 3.0 7.0 0.00 0.00 0.00 52 1084.1
20260504213503 60 65 3.0 7.0 0.00 0.00 0.00 52 1084.1
20260504213403 60 64 2.0 7.0 0.00 0.00 0.00 52 1084.3
20260504213303 60 64 3.0 7.0 0.00 0.00 0.00 52 1084.1
20260504213203 60 63 2.0 7.0 0.00 0.00 0.00 52 1084.1
20260504213103 60 62 2.0 6.0 0.00 0.00 0.00 52 1084.1
20260504213003 60 63 2.0 6.0 0.00 0.00 0.00 52 1084.3
20260504212903 60 63 2.0 6.0 0.00 0.00 0.00 52 1084.2
20260504212603 60 65 1.0 6.0 0.00 0.00 0.00 53 1084.3
20260504212503 60 64 1.0 6.0 0.00 0.00 0.00 52 1084.3
20260504212403 60 66 1.0 7.0 0.00 0.00 0.00 53 1084.1
20260504212304 60 63 1.0 7.0 0.00 0.00 0.00 52 1084.3
20260504212203 60 59 1.0 7.0 0.00 0.00 0.00 52 1084.3
20260504212103 60 57 1.0 7.0 0.00 0.00 0.00 52 1084.2
20260504212003 60 58 2.0 7.0 0.00 0.00 0.00 51 1084.2
20260504211903 60 57 2.0 7.0 0.00 0.00 0.00 51 1084.4
20260504211803 60 57 2.0 7.0 0.00 0.00 0.00 51 1084.3
20260504211703 60 58 2.0 7.0 0.00 0.00 0.00 51 1084.4
20260504211603 60 58 3.0 7.0 0.00 0.00 0.00 51 1084.3
20260504211503 60 59 3.0 7.0 0.00 0.00 0.00 51 1084.5
20260504211303 61 57 3.0 9.0 0.00 0.00 0.00 51 1084.2
20260504211203 61 61 3.0 9.0 0.00 0.00 0.00 51 1084.3
20260504211103 61 64 3.0 9.0 0.00 0.00 0.00 51 1084.4
20260504211003 61 64 3.0 9.0 0.00 0.00 0.00 52 1084.5
20260504210918 60 67 3.0 9.0 0.00 0.00 0.00 52 1084.3
20260504210903 60 66 3.0 9.0 0.00 0.00 0.00 52 1084.3
20260504210803 60 67 3.0 9.0 0.00 0.00 0.00 52 1084.2
20260504210603 60 68 3.0 9.0 0.00 0.00 0.00 52 1084.5
20260504210503 60 68 3.0 9.0 0.00 0.00 0.00 52 1084.3
20260504210403 60 69 3.0 9.0 0.00 0.00 0.00 52 1084.3
20260504210218 61 70 3.0 7.0 0.00 0.00 0.00 52 1084.3
20260504210203 61 69 3.0 7.0 0.00 0.00 0.00 52 1084.3
20260504205903 61 67 3.0 7.0 0.00 0.00 0.00 52 1084.3
20260504205803 61 67 3.0 8.0 0.00 0.00 0.00 52 1084.4
20260504205703 61 67 3.0 8.0 0.00 0.00 0.00 52 1084.6
20260504205603 61 66 3.0 8.0 0.00 0.00 0.00 52 1084.3
20260504205503 61 67 3.0 8.0 0.00 0.00 0.00 52 1084.4
20260504205403 61 67 3.0 8.0 0.00 0.00 0.00 52 1084.2
20260504205304 61 68 3.0 8.0 0.00 0.00 0.00 52 1084.5
20260504205103 61 69 3.0 8.0 0.00 0.00 0.00 52 1084.7
20260504205003 61 69 3.0 8.0 0.00 0.00 0.00 52 1084.5
20260504204903 61 67 3.0 8.0 0.00 0.00 0.00 52 1084.6
20260504204803 61 66 3.0 8.0 0.00 0.00 0.00 52 1084.4
20260504204703 61 64 2.0 8.0 0.00 0.00 0.00 51 1084.5
20260504204603 61 65 3.0 8.0 0.00 0.00 0.00 51 1084.2
20260504204503 61 66 3.0 8.0 0.00 0.00 0.00 51 1084.6
20260504204417 61 68 3.0 8.0 0.00 0.00 0.00 51 1084.6
20260504204403 61 67 3.0 8.0 0.00 0.00 0.00 51 1084.6
20260504204303 61 67 3.0 8.0 0.00 0.00 0.00 51 1084.5
20260504204218 61 68 3.0 8.0 0.00 0.00 0.00 51 1084.5
20260504204103 61 66 3.0 8.0 0.00 0.00 0.00 51 1084.5
20260504204017 61 66 3.0 8.0 0.00 0.00 0.00 51 1084.5
20260504203903 61 70 2.0 6.0 0.00 0.00 0.00 51 1084.6
20260504203818 61 71 2.0 6.0 0.00 0.00 0.00 51 1084.5
20260504203703 61 72 3.0 7.0 0.00 0.00 0.00 51 1084.9
20260504203503 61 73 3.0 8.0 0.00 0.00 0.00 51 1084.6
20260504203403 61 71 3.0 8.0 0.00 0.00 0.00 51 1084.5
20260504203303 61 72 3.0 9.0 0.00 0.00 0.00 51 1084.4
20260504203218 61 74 4.0 9.0 0.00 0.00 0.00 51 1084.6
20260504203203 61 75 4.0 9.0 0.00 0.00 0.00 51 1084.6
20260504202903 62 78 4.0 9.0 0.00 0.00 0.00 51 1084.5
20260504202803 62 77 4.0 9.0 0.00 0.00 0.00 51 1084.3
20260504202603 62 77 4.0 11.0 0.00 0.00 0.00 51 1084.3
20260504202503 62 77 5.0 11.0 0.00 0.00 0.00 51 1084.6
20260504202403 62 77 5.0 11.0 0.00 0.00 0.00 51 1084.6
20260504202304 62 77 4.0 11.0 0.00 0.00 0.00 51 1084.5
20260504202203 62 75 4.0 11.0 0.00 0.00 0.00 51 1084.5
20260504202103 62 75 4.0 11.0 0.00 0.00 0.00 51 1084.7
20260504202003 62 76 4.0 11.0 0.00 0.00 0.00 51 1084.6
20260504201903 62 75 4.0 11.0 0.00 0.00 0.00 51 1084.7
20260504201703 62 77 4.0 11.0 0.00 0.00 0.00 51 1084.5
20260504201603 62 78 4.0 10.0 0.00 0.00 0.00 51 1084.5
20260504201503 62 78 4.0 10.0 0.00 0.00 0.00 51 1084.7
20260504201416 62 79 4.0 10.0 0.00 0.00 0.00 51 1084.5
20260504201303 62 80 4.0 10.0 0.00 0.00 0.00 51 1084.7
20260504201103 62 82 4.0 10.0 0.00 0.00 0.00 51 1084.7
20260504201003 62 82 4.0 10.0 0.00 0.00 0.00 51 1084.7
20260504200903 62 80 4.0 10.0 0.00 0.00 0.00 51 1084.7
20260504200803 62 81 4.0 10.0 0.00 0.00 0.00 51 1084.7
20260504200703 62 81 4.0 10.0 0.00 0.00 0.00 51 1084.6
20260504200603 62 79 4.0 10.0 0.00 0.00 0.00 51 1084.6
20260504200503 62 78 4.0 10.0 0.00 0.00 0.00 51 1084.9
20260504200403 62 79 4.0 10.0 0.00 0.00 0.00 51 1084.4
20260504200203 62 75 4.0 10.0 0.00 0.00 0.00 51 1084.6
20260504195903 62 77 5.0 10.0 0.00 0.00 0.00 51 1084.6
20260504195803 62 77 5.0 9.0 0.00 0.00 0.00 51 1084.5
20260504195603 62 80 5.0 9.0 0.00 0.00 0.00 51 1084.7
20260504195503 62 82 5.0 9.0 0.00 0.00 0.00 51 1084.6
20260504195403 62 81 5.0 9.0 0.00 0.00 0.00 52 1084.6
20260504195317 62 83 5.0 9.0 0.00 0.00 0.00 52 1084.6
20260504195304 62 82 5.0 9.0 0.00 0.00 0.00 52 1084.6
20260504195203 62 82 5.0 9.0 0.00 0.00 0.00 52 1084.9
20260504195003 62 80 4.0 9.0 0.00 0.00 0.00 52 1084.6
20260504194903 62 80 4.0 9.0 0.00 0.00 0.00 51 1084.9
20260504194803 62 79 4.0 9.0 0.00 0.00 0.00 52 1084.6
20260504194716 62 77 4.0 8.0 0.00 0.00 0.00 52 1084.6
20260504194703 62 78 4.0 8.0 0.00 0.00 0.00 52 1084.6
20260504194617 62 78 4.0 8.0 0.00 0.00 0.00 52 1084.6
20260504194518 62 76 3.0 8.0 0.00 0.00 0.00 52 1084.5
20260504194203 62 76 3.0 9.0 0.00 0.00 0.00 52 1084.6
20260504194103 63 79 4.0 9.0 0.00 0.00 0.00 52 1084.6
20260504194003 63 78 4.0 9.0 0.00 0.00 0.00 52 1084.6
20260504193917 63 77 4.0 9.0 0.00 0.00 0.00 51 1084.7
20260504193903 63 76 4.0 9.0 0.00 0.00 0.00 51 1084.7
20260504193803 63 77 4.0 9.0 0.00 0.00 0.00 51 1084.7
20260504193718 63 76 4.0 9.0 0.00 0.00 0.00 51 1084.5
20260504193603 63 74 4.0 9.0 0.00 0.00 0.00 52 1084.7
20260504193403 63 74 4.0 8.0 0.00 0.00 0.00 51 1084.6
20260504193303 63 75 4.0 8.0 0.00 0.00 0.00 51 1084.7
20260504193203 63 73 4.0 8.0 0.00 0.00 0.00 51 1084.6
20260504193003 63 67 4.0 8.0 0.00 0.00 0.00 52 1084.6
20260504192903 63 67 3.0 8.0 0.00 0.00 0.00 52 1084.6
20260504192703 63 66 3.0 7.0 0.00 0.00 0.00 52 1084.6
20260504192603 63 67 3.0 7.0 0.00 0.00 0.00 51 1084.9
20260504192503 63 67 3.0 8.0 0.00 0.00 0.00 51 1084.6
20260504192403 63 65 3.0 8.0 0.00 0.00 0.00 51 1084.6
20260504192304 63 67 3.0 8.0 0.00 0.00 0.00 51 1085.0
20260504192203 63 66 3.0 8.0 0.00 0.00 0.00 51 1084.7
20260504192103 63 69 3.0 8.0 0.00 0.00 0.00 51 1084.9
20260504191917 63 70 3.0 8.0 0.00 0.00 0.00 51 1084.6
20260504191903 63 71 3.0 8.0 0.00 0.00 0.00 51 1084.6
20260504191803 63 71 3.0 8.0 0.00 0.00 0.00 51 1084.6
20260504191503 63 71 3.0 7.0 0.00 0.00 0.00 51 1084.6
20260504191403 63 73 3.0 7.0 0.00 0.00 0.00 51 1084.6
20260504191317 63 72 3.0 7.0 0.00 0.00 0.00 51 1084.5
20260504191303 63 71 3.0 7.0 0.00 0.00 0.00 51 1084.5
20260504191203 63 72 3.0 7.0 0.00 0.00 0.00 51 1084.7
20260504191118 63 71 3.0 7.0 0.00 0.00 0.00 51 1084.9
20260504191003 64 72 3.0 7.0 0.00 0.00 0.00 51 1084.7
20260504190803 64 70 3.0 7.0 0.00 0.00 0.00 51 1084.7
20260504190703 64 70 3.0 7.0 0.00 0.00 0.00 51 1084.9
20260504190503 64 70 3.0 7.0 0.00 0.00 0.00 51 1084.7
20260504190403 64 71 3.0 7.0 0.00 0.00 0.00 51 1084.7
20260504190303 64 72 3.0 9.0 0.00 0.00 0.00 51 1084.6
20260504190203 64 73 3.0 9.0 0.00 0.00 0.00 51 1084.6
20260504190003 64 73 3.0 9.0 0.00 0.00 0.00 51 1084.5
20260504185903 64 74 3.0 9.0 0.00 0.00 0.00 51 1085.0
20260504185803 64 72 3.0 9.0 0.00 0.00 0.00 51 1084.7
20260504185703 64 72 3.0 9.0 0.00 0.00 0.00 51 1084.7
20260504185604 64 73 3.0 9.0 0.00 0.00 0.00 50 1084.6
20260504185503 64 71 3.0 9.0 0.00 0.00 0.00 51 1084.7
20260504185403 64 71 3.0 9.0 0.00 0.00 0.00 51 1084.6
20260504185304 64 70 3.0 7.0 0.00 0.00 0.00 51 1084.6
20260504185103 64 70 3.0 7.0 0.00 0.00 0.00 51 1084.7
20260504185016 64 70 3.0 7.0 0.00 0.00 0.00 51 1084.6
20260504185003 64 70 2.0 7.0 0.00 0.00 0.00 51 1084.6
20260504184903 64 70 3.0 6.0 0.00 0.00 0.00 51 1084.6
20260504184603 64 72 3.0 6.0 0.00 0.00 0.00 51 1084.5
20260504184517 64 72 3.0 6.0 0.00 0.00 0.00 51 1084.6
20260504184503 64 73 3.0 6.0 0.00 0.00 0.00 51 1084.6
20260504184203 65 69 3.0 6.0 0.00 0.00 0.00 51 1084.7
20260504184103 65 67 3.0 6.0 0.00 0.00 0.00 51 1084.6
20260504184003 65 66 3.0 6.0 0.00 0.00 0.00 51 1084.7
20260504183903 65 65 3.0 6.0 0.00 0.00 0.00 51 1084.5
20260504183803 65 64 3.0 6.0 0.00 0.00 0.00 51 1084.5
20260504183703 65 63 2.0 6.0 0.00 0.00 0.00 51 1084.5
20260504183617 65 62 2.0 6.0 0.00 0.00 0.00 51 1084.4
20260504183603 65 62 2.0 6.0 0.00 0.00 0.00 51 1084.6
20260504183503 65 62 2.0 4.0 0.00 0.00 0.00 51 1084.6
20260504183303 65 65 2.0 4.0 0.00 0.00 0.00 51 1084.4
20260504183203 65 62 2.0 6.0 0.00 0.00 0.00 50 1084.5
20260504183103 65 63 2.0 6.0 0.00 0.00 0.00 50 1084.7
20260504183003 66 66 2.0 6.0 0.00 0.00 0.00 50 1084.4
20260504182903 66 66 2.0 6.0 0.00 0.00 0.00 50 1084.5
20260504182803 66 68 2.0 6.0 0.00 0.00 0.00 49 1084.7
20260504182703 66 70 2.0 6.0 0.00 0.00 0.00 50 1084.5
20260504182603 66 72 2.0 6.0 0.00 0.00 0.00 49 1084.6
20260504182503 66 71 2.0 6.0 0.00 0.00 0.00 49 1084.6
20260504182403 66 70 2.0 6.0 0.00 0.00 0.00 49 1084.7
20260504182304 66 71 2.0 6.0 0.00 0.00 0.00 49 1084.4
20260504182203 66 77 2.0 6.0 0.00 0.00 0.00 49 1084.6
20260504182003 67 81 2.0 6.0 0.00 0.00 0.00 49 1084.5
20260504181903 67 81 2.0 6.0 0.00 0.00 0.00 49 1084.5
20260504181803 67 83 2.0 7.0 0.00 0.00 0.00 48 1084.4
20260504181704 67 86 3.0 7.0 0.00 0.00 0.00 48 1084.4
20260504181603 67 84 3.0 7.0 0.00 0.00 0.00 48 1084.5
20260504181503 67 84 3.0 7.0 0.00 0.00 0.00 48 1084.2
20260504181403 67 83 3.0 7.0 0.00 0.00 0.00 48 1084.5
20260504181303 67 85 3.0 7.0 0.00 0.00 0.00 48 1084.6
20260504181203 67 82 3.0 7.0 0.00 0.00 0.00 48 1084.6
20260504181103 67 80 3.0 7.0 0.00 0.00 0.00 48 1084.4
20260504181003 67 78 3.0 7.0 0.00 0.00 0.00 48 1084.2
20260504180903 67 79 3.0 7.0 0.00 0.00 0.00 48 1084.6
20260504180803 67 76 3.0 6.0 0.00 0.00 0.00 48 1084.5
20260504180703 67 74 2.0 6.0 0.00 0.00 0.00 48 1084.3
20260504180603 67 76 2.0 6.0 0.00 0.00 0.00 48 1084.3
20260504180503 68 77 2.0 6.0 0.00 0.00 0.00 48 1084.5
20260504180403 68 79 2.0 6.0 0.00 0.00 0.00 48 1084.4
20260504180303 68 78 2.0 6.0 0.00 0.00 0.00 48 1084.5
20260504180203 68 80 2.0 6.0 0.00 0.00 0.00 48 1084.3
20260504180103 68 83 2.0 4.0 0.00 0.00 0.00 48 1084.5
20260504180003 68 84 2.0 6.0 0.00 0.00 0.00 48 1084.5
20260504175903 68 86 2.0 6.0 0.00 0.00 0.00 48 1084.3
20260504175803 68 86 2.0 6.0 0.00 0.00 0.00 48 1084.5
20260504175703 68 87 2.0 6.0 0.00 0.00 0.00 48 1084.4
20260504175603 68 85 2.0 6.0 0.00 0.00 0.00 48 1084.3
20260504175503 68 84 2.0 6.0 0.00 0.00 0.00 48 1084.5
20260504175418 68 85 2.0 6.0 0.00 0.00 0.00 47 1084.6
20260504175403 68 86 2.0 6.0 0.00 0.00 0.00 47 1084.6
20260504175304 68 86 3.0 6.0 0.00 0.00 0.00 47 1084.4
20260504175103 68 85 3.0 6.0 0.00 0.00 0.00 48 1084.5
20260504175003 69 89 3.0 6.0 0.00 0.00 0.00 47 1084.5
20260504174903 69 90 3.0 7.0 0.00 0.00 0.00 48 1084.6
20260504174803 69 91 3.0 7.0 0.00 0.00 0.00 48 1084.2
20260504174703 69 89 3.0 8.0 0.00 0.00 0.00 47 1084.3
20260504174517 69 94 3.0 8.0 0.00 0.00 0.00 47 1084.4
20260504174503 69 93 3.0 8.0 0.00 0.00 0.00 47 1084.4
20260504174403 69 92 3.0 8.0 0.00 0.00 0.00 48 1084.4
20260504174203 69 96 3.0 8.0 0.00 0.00 0.00 47 1084.3
20260504174103 69 97 3.0 8.0 0.00 0.00 0.00 47 1084.1
20260504174003 69 95 3.0 8.0 0.00 0.00 0.00 47 1084.5
20260504173903 69 98 3.0 8.0 0.00 0.00 0.00 47 1084.5
20260504173803 69 97 3.0 8.0 0.00 0.00 0.00 48 1084.3
20260504173703 69 98 3.0 8.0 0.00 0.00 0.00 48 1084.4
20260504173618 69 97 3.0 8.0 0.00 0.00 0.00 47 1084.6
20260504173603 69 96 3.0 8.0 0.00 0.00 0.00 47 1084.6
20260504173503 69 96 3.0 8.0 0.00 0.00 0.00 47 1084.4
20260504173303 69 98 3.0 8.0 0.00 0.00 0.00 48 1084.5
20260504173203 69 95 3.0 8.0 0.00 0.00 0.00 48 1084.2
20260504172917 70 93 3.0 8.0 0.00 0.00 0.00 48 1084.2
20260504172903 70 91 3.0 8.0 0.00 0.00 0.00 48 1084.2
20260504172803 70 90 3.0 8.0 0.00 0.00 0.00 48 1084.4
20260504172718 70 89 3.0 8.0 0.00 0.00 0.00 48 1084.6
20260504172603 70 88 3.0 8.0 0.00 0.00 0.00 47 1084.5
20260504172403 70 89 3.0 8.0 0.00 0.00 0.00 48 1084.3
20260504172304 70 88 3.0 8.0 0.00 0.00 0.00 48 1084.5
20260504172203 70 89 3.0 8.0 0.00 0.00 0.00 47 1084.2
20260504172103 70 88 3.0 8.0 0.00 0.00 0.00 47 1084.4
20260504172003 70 85 3.0 8.0 0.00 0.00 0.00 47 1084.4
20260504171903 70 88 3.0 8.0 0.00 0.00 0.00 47 1084.4
20260504171803 71 91 3.0 8.0 0.00 0.00 0.00 47 1084.2
20260504171717 71 91 3.0 8.0 0.00 0.00 0.00 48 1084.6
20260504171703 71 92 3.0 8.0 0.00 0.00 0.00 48 1084.6
20260504171603 71 98 3.0 7.0 0.00 0.00 0.00 47 1084.5
20260504171517 71 96 3.0 7.0 0.00 0.00 0.00 47 1084.3
20260504171403 71 95 2.0 7.0 0.00 0.00 0.00 47 1084.5
20260504171318 71 95 3.0 7.0 0.00 0.00 0.00 47 1084.5
20260504171203 71 95 3.0 7.0 0.00 0.00 0.00 47 1084.5
20260504171003 71 100 3.0 7.0 0.00 0.00 0.00 47 1084.4
20260504170903 71 103 3.0 9.0 0.00 0.00 0.00 47 1084.5
20260504170803 71 106 3.0 10.0 0.00 0.00 0.00 47 1084.5
20260504170703 71 106 4.0 10.0 0.00 0.00 0.00 47 1084.4
20260504170618 71 107 4.0 11.0 0.00 0.00 0.00 47 1084.4
20260504170603 71 108 4.0 11.0 0.00 0.00 0.00 47 1084.4
20260504170503 71 109 4.0 11.0 0.00 0.00 0.00 47 1084.3
20260504170318 71 108 5.0 11.0 0.00 0.00 0.00 47 1084.5
20260504170303 71 109 5.0 11.0 0.00 0.00 0.00 47 1084.5
20260504170203 72 108 5.0 11.0 0.00 0.00 0.00 47 1084.4